Date String (YYYY-MM-DD hh:mm:ss) UTC,Instrument flags,absolute air pressure of the measurement (hPa),sample flow rate (lpm),inlet stack bypass flow (lpm),air temperature of the measurement (°C),ambient temperature measured by the external sensor (°C),aerosol sample conditioner tube jacket temperature (°C),OPC LED temperature (°C),internal box temperature (°C),relative humidity of the measurement (%),span deviation,mass concentration of particles derived from Lorenz-Mie calculation of OPC scattering (μg/m³),mass concentration of particles derived from Lorenz-Mie calculation of OPC scattering (μg/m³),mass concentration of particles derived from Lorenz-Mie calculation of OPC scattering (μg/m³)
DateTimeUTC,F1_M11,P_M11,Q1_M11,Q2_M11,T1_M11,T2_M11,T3_M11,T4_M11,T5_M11,U1_M11,ZSPAN_M11,X0_M11,X2_M11,X1_M11
2023-08-09 10:00:00,SystemResetWarning,0830.3,5.00,000.00,030.0,028.7,000.0,038.6,031.5,24.2,0000.0,0009.37,0005.00,0004.43
2023-08-09 10:01:00,SystemResetWarning,0830.3,5.01,000.00,030.0,028.6,000.0,038.6,031.5,24.2,0000.0,0009.12,0004.98,0004.43
2023-08-09 10:02:00,SystemResetWarning,0830.3,4.99,000.00,030.0,027.1,000.0,038.5,031.4,24.4,0000.0,0009.43,0005.00,0004.43
2023-08-09 10:03:00,SystemResetWarning,0830.3,5.00,000.00,029.9,025.5,000.0,038.4,031.1,24.5,0000.0,0010.06,0005.04,0004.44
2023-08-09 10:04:00,SystemResetWarning,0830.3,5.01,000.00,029.8,025.1,000.0,038.3,030.8,24.6,0000.0,0009.77,0005.01,0004.44
2023-08-09 10:05:00,SystemResetWarning,0830.3,5.01,000.00,029.6,025.4,000.0,038.3,030.6,24.8,0000.0,0009.99,0004.98,0004.43
2023-08-09 10:06:00,SystemResetWarning,0830.3,5.00,000.00,029.6,025.8,000.0,038.3,030.7,24.8,0000.0,0010.48,0004.98,0004.42
2023-08-09 10:07:00,SystemResetWarning,0830.3,5.00,000.00,029.5,026.3,000.0,038.3,030.8,24.8,0000.0,0010.47,0004.98,0004.43
2023-08-09 10:08:00,SystemResetWarning,0830.3,4.99,000.00,029.5,026.7,000.0,038.3,030.9,24.9,0000.0,0010.44,0004.96,0004.43
2023-08-09 10:09:00,SystemResetWarning,0830.3,5.00,000.00,029.5,027.0,000.0,038.3,031.0,24.9,0000.0,0010.06,0004.94,0004.44
2023-08-09 10:10:00,SystemResetWarning,0830.4,5.00,000.00,029.5,027.3,000.0,038.3,031.0,24.9,0000.0,0009.41,0004.88,0004.44
2023-08-09 10:11:00,SystemResetWarning,0830.4,5.01,000.00,029.5,027.5,000.0,038.3,031.0,24.8,0000.0,0009.48,0004.89,0004.43
2023-08-09 10:12:00,SystemResetWarning,0830.4,5.00,000.00,029.5,027.7,000.0,038.3,031.1,24.7,0000.0,0009.64,0004.90,0004.44
2023-08-09 10:13:00,SystemResetWarning,0830.4,5.00,000.00,029.5,027.8,000.0,038.3,031.1,24.8,0000.0,0009.72,0004.90,0004.43
2023-08-09 10:14:00,SystemResetWarning,0830.4,5.00,000.00,029.6,027.9,000.0,038.3,031.1,24.7,0000.0,0009.12,0004.90,0004.43
2023-08-09 10:15:00,SystemResetWarning,0830.4,5.00,000.00,029.6,028.0,000.0,038.3,031.2,24.6,0000.0,0009.58,0004.92,0004.44
2023-08-09 10:16:00,SystemResetWarning,0830.4,5.00,000.00,029.6,028.1,000.0,038.2,031.2,24.5,0000.0,0009.60,0004.96,0004.45
2023-08-09 10:17:00,SystemResetWarning,0830.4,5.00,000.00,029.6,028.2,000.0,038.3,031.2,24.2,0000.0,0008.86,0004.96,0004.46
2023-08-09 10:18:00,SystemResetWarning,0830.3,5.00,000.00,029.6,028.3,000.0,038.3,031.2,24.0,0000.0,0008.90,0004.95,0004.46
2023-08-09 10:19:00,SystemResetWarning,0830.3,4.99,000.00,029.6,028.3,000.0,038.3,031.2,24.0,0000.0,0008.89,0004.94,0004.47
2023-08-09 10:20:00,SystemResetWarning,0830.3,4.99,000.00,029.7,028.4,000.0,038.3,031.3,24.0,0000.0,0009.16,0004.95,0004.46
2023-08-09 10:21:00,SystemResetWarning,0830.3,5.00,000.00,029.7,028.4,000.0,038.3,031.3,23.9,0000.0,0009.51,0004.98,0004.47
2023-08-09 10:22:00,SystemResetWarning,0830.3,5.01,000.00,029.7,028.5,000.0,038.3,031.3,23.9,0000.0,0009.54,0005.00,0004.46
2023-08-09 10:23:00,SystemResetWarning,0830.3,5.01,000.00,029.7,028.5,000.0,038.3,031.3,23.8,0000.0,0009.68,0005.01,0004.47
2023-08-09 10:24:00,SystemResetWarning,0830.3,5.00,000.00,029.7,028.5,000.0,038.3,031.3,23.8,0000.0,0009.88,0005.06,0004.47
2023-08-09 10:25:00,SystemResetWarning,0830.3,4.99,000.00,029.8,028.6,000.0,038.3,031.4,23.8,0000.0,0010.10,0005.02,0004.46
2023-08-09 10:26:00,SystemResetWarning,0830.3,4.99,000.00,029.8,028.6,000.0,038.4,031.4,23.8,0000.0,0009.54,0005.01,0004.46
2023-08-09 10:27:00,SystemResetWarning,0830.3,5.00,000.00,029.8,028.6,000.0,038.4,031.4,23.8,0000.0,0009.49,0005.00,0004.46
2023-08-09 10:28:00,SystemResetWarning,0830.4,5.00,000.00,029.8,028.6,000.0,038.4,031.4,23.6,0000.0,0009.91,0005.00,0004.45
2023-08-09 10:29:00,SystemResetWarning,0830.4,5.00,000.00,029.8,028.6,000.0,038.4,031.4,23.6,0000.0,0010.17,0005.00,0004.46
2023-08-09 10:30:00,SystemResetWarning,0830.4,5.01,000.00,029.8,028.6,000.0,038.4,031.4,23.7,0000.0,0010.39,0005.02,0004.46
2023-08-09 10:31:00,SystemResetWarning,0830.4,5.00,000.00,029.9,028.7,000.0,038.4,031.5,23.6,0000.0,0010.27,0005.03,0004.46
2023-08-09 10:32:00,SystemResetWarning,0830.4,5.00,000.00,029.9,028.7,000.0,038.5,031.5,23.3,0000.0,0010.71,0005.03,0004.46
2023-08-09 10:33:00,SystemResetWarning,0830.4,5.00,000.00,029.9,028.7,000.0,038.5,031.5,23.5,0000.0,0010.67,0005.00,0004.47
2023-08-09 10:34:00,SystemResetWarning,0830.4,5.00,000.00,029.9,028.7,000.0,038.5,031.5,23.7,0000.0,0010.57,0005.00,0004.47
2023-08-09 10:35:00,SystemResetWarning,0830.4,5.00,000.00,029.9,028.7,000.0,038.5,031.5,23.6,0000.0,0010.09,0004.97,0004.48
2023-08-09 10:36:00,SystemResetWarning,0830.4,5.00,000.00,029.9,028.7,000.0,038.5,031.5,23.1,0000.0,0009.88,0004.98,0004.49
2023-08-09 10:37:00,SystemResetWarning,0830.4,5.00,000.00,029.9,028.7,000.0,038.5,031.5,22.8,0000.0,0010.16,0005.02,0004.50
2023-08-09 10:38:00,SystemResetWarning,0830.4,5.00,000.00,030.0,028.8,000.0,038.6,031.6,22.7,0000.0,0010.32,0005.03,0004.51
2023-08-09 10:39:00,SystemResetWarning,0830.5,5.00,000.00,030.0,028.8,000.0,038.6,031.6,22.5,0000.0,0010.34,0005.05,0004.51
2023-08-09 10:40:00,SystemResetWarning,0830.5,5.00,000.00,030.0,028.8,000.0,038.6,031.6,22.5,0000.0,0009.86,0005.08,0004.52
2023-08-09 10:41:00,SystemResetWarning,0830.4,4.99,000.00,030.0,028.8,000.0,038.6,031.6,22.6,0000.0,0010.06,0005.08,0004.52
2023-08-09 10:42:00,SystemResetWarning,0830.4,4.99,000.00,030.0,028.8,000.0,038.6,031.6,22.2,0000.0,0010.36,0005.08,0004.52
2023-08-09 10:43:00,SystemResetWarning,0830.5,5.00,000.00,030.1,028.8,000.0,038.6,031.7,23.3,0000.0,0009.77,0005.07,0004.52
2023-08-09 10:44:00,SystemResetWarning,0830.4,4.99,000.00,030.0,027.5,000.0,038.5,031.5,23.4,0000.0,0009.65,0005.09,0004.51
2023-08-09 10:45:00,SystemResetWarning,0830.4,5.00,000.00,030.0,025.7,000.0,038.4,031.2,22.7,0000.0,0009.64,0005.10,0004.52
2023-08-09 10:46:00,SystemResetWarning,0830.4,5.00,000.00,029.9,025.2,000.0,038.3,030.9,23.5,0000.0,0009.59,0005.09,0004.52
2023-08-09 10:47:00,SystemResetWarning,0830.3,5.02,000.00,029.7,025.5,000.0,038.3,030.7,24.4,0000.0,0009.82,0005.12,0004.51
2023-08-09 10:48:00,SystemResetWarning,0830.3,4.99,000.00,029.6,025.9,000.0,038.3,030.8,25.3,0000.0,0009.45,0005.10,0004.51
2023-08-09 10:49:00,SystemResetWarning,0830.3,4.99,000.00,029.6,026.3,000.0,038.3,030.9,25.5,0000.0,0009.26,0005.09,0004.50
2023-08-09 10:50:00,SystemResetWarning,0830.3,5.00,000.00,029.6,026.7,000.0,038.3,030.9,25.4,0000.0,0009.17,0005.07,0004.50
2023-08-09 10:51:00,SystemResetWarning,0830.3,5.01,000.00,029.6,027.0,000.0,038.3,031.0,25.1,0000.0,0009.08,0005.05,0004.50
2023-08-09 10:52:00,SystemResetWarning,0830.3,5.01,000.00,029.6,027.3,000.0,038.3,031.0,25.3,0000.0,0009.22,0005.06,0004.50
2023-08-09 10:53:00,SystemResetWarning,0830.3,5.00,000.00,029.6,027.5,000.0,038.3,031.1,25.1,0000.0,0009.05,0005.07,0004.51
2023-08-09 10:54:00,SystemResetWarning,0830.3,4.99,000.00,029.6,027.6,000.0,038.3,031.1,25.3,0000.0,0009.06,0005.07,0004.51
2023-08-09 10:55:00,SystemResetWarning,0830.3,4.99,000.00,029.6,027.8,000.0,038.3,031.1,25.3,0000.0,0009.08,0005.06,0004.51
2023-08-09 10:56:00,SystemResetWarning,0830.3,5.00,000.00,029.6,027.9,000.0,038.3,031.1,25.1,0000.0,0009.02,0005.04,0004.52
2023-08-09 10:57:00,SystemResetWarning,0830.3,5.01,000.00,029.6,028.0,000.0,038.3,031.1,24.6,0000.0,0008.95,0005.03,0004.53
2023-08-09 10:58:00,SystemResetWarning,0830.3,5.01,000.00,029.6,028.1,000.0,038.3,031.2,24.4,0000.0,0008.72,0004.99,0004.53
2023-08-09 10:59:00,SystemResetWarning,0830.3,5.00,000.00,029.6,028.1,000.0,038.3,031.2,24.1,0000.0,0008.75,0004.99,0004.52
